Location: Croydon
(51.3762°N, 0.0982°W)
Time: 03:13:20
(UTC+01:00)

STRAND 1 - Visible Passes

Search period start: 20 April 2019 00:00
Search period end: 30 April 2019 00:00
Orbit: 767 x 782 km, 98.5° (Epoch: 19 April)

Date Brightness Start Highest point End Pass type
(mag) Time Alt. Az. Time Alt. Az. Time Alt. Az.
20 Apr ? 20:43:57 10° NNE 20:49:05 75° ESE 20:54:10 10° S visible
20 Apr ? 22:24:00 10° N 22:27:46 21° WNW 22:31:30 10° WSW visible
21 Apr ? 21:49:29 10° N 21:54:06 35° WNW 21:58:42 10° SW visible
22 Apr ? 21:15:15 10° N 21:20:18 63° WNW 21:25:20 10° SSW visible
22 Apr ? 22:56:14 10° NNW 22:58:33 13° NW 23:00:52 10° WNW visible
23 Apr ? 20:41:13 10° NNE 20:46:20 72° ESE 20:51:25 10° S visible
23 Apr ? 22:21:12 10° N 22:25:02 22° WNW 22:28:52 10° WSW visible
24 Apr ? 21:46:43 10° N 21:51:23 37° WNW 21:56:02 10° SW visible
25 Apr ? 21:12:29 10° N 21:17:34 66° WNW 21:22:37 10° SSW visible
25 Apr ? 22:53:22 10° NNW 22:55:51 14° NW 22:58:20 10° W visible
26 Apr ? 22:18:24 10° N 22:22:20 23° WNW 22:26:15 10° WSW visible
27 Apr ? 21:43:56 10° N 21:48:39 39° WNW 21:53:21 10° SW visible
28 Apr ? 21:09:43 10° N 21:14:49 70° WNW 21:19:54 10° SSW visible
28 Apr ? 22:50:29 10° NNW 22:53:09 14° NW 22:55:48 10° W visible
29 Apr ? 22:15:36 10° N 22:19:37 24° WNW 22:23:38 10° WSW visible
